Weather History for Mandan, ND

Change the Weather History Date:

Friday, November 18, 2011

  Actual Average (KBIS) Record (KBIS)
Temperature  
Mean Temperature 26 °F 28 °F  
Max Temperature 39 °F 38 °F 72 °F (1908)
Min Temperature 14 °F 18 °F -16 °F (1986)
Degree Days  
Heating Degree Days 38 37  
Month to date heating degree days 586  
Since 1 July heating degree days 1498  
Cooling Degree Days 0 0  
Month to date cooling degree days 0  
Year to date cooling degree days 520  
Moisture  
Dew Point 18 °F    
Average Humidity 65    
Maximum Humidity 93    
Minimum Humidity 39    
Precipitation  
Precipitation 0.00 in 0.03 in 0.53 in (1895)
Month to date precipitation 0.49  
Year to date precipitation 17.14  
Snow  
Snow 0.00 in 0.30 in 5.00 in (1998)
Month to date snowfall 5.1  
Since 1 July snowfall 7.5  
Since 1 September snowfall 7.5  
Snow Depth -    
Sea Level Pressure  
Sea Level Pressure 29.69 in    
Wind  
Wind Speed 13 mph (NW)    
Max Wind Speed 20 mph    
Max Gust Speed 25 mph    
Visibility 10 miles    
Events Snow    
T = Trace of Precipitation, MM = Missing Value Source: NWS Daily Summary

Daily Weather History Graph

Daily Weather History Graph

Search for Another Location

Airport:

Trip Planner

Search our weather history database for the weather conditions in past years. The results will help you decide how hot, cold, wet, or windy it might be!

Date:

Astronomy

Nov. 18, 2011 Rise Set
Actual Time 7:50 AM CST 5:06 PM CST
Civil Twilight 7:16 AM CST 5:39 PM CST
Nautical Twilight 6:39 AM CST 6:16 PM CST
Astronomical Twilight 6:04 AM CST 6:52 PM CST
Moon No Moon Rise 1:19 PM CST (11/18)
Length of Visible Light 10h 23m
Length of Day
9h 16m
Waning Gibbous, 49% of the Moon is Illuminated
Nov 18
Waning Gibbous
Nov 25
New
Dec 2
First Quarter
Dec 10
Full
Dec 17
Last Quarter

Hourly Weather History & Observations

Time (CST) Temp. Windchill Dew Point Humidity Pressure Visibility Wind Dir Wind Speed Gust Speed Precip Events Conditions
12:15 AM 32.0 °F 23.6 °F 14.0 °F 48% 29.54 in 10.0 mi SSW 10.4 mph - N/A   Overcast
12:35 AM 32.0 °F 22.5 °F 14.0 °F 48% 29.54 in 10.0 mi SSW 12.7 mph - N/A   Overcast
12:55 AM 32.0 °F 23.6 °F 14.0 °F 48% 29.53 in 10.0 mi SW 10.4 mph - N/A   Overcast
1:15 AM 32.0 °F 24.8 °F 14.0 °F 48% 29.53 in 10.0 mi SW 8.1 mph - N/A   Overcast
1:35 AM 32.0 °F 24.8 °F 15.8 °F 51% 29.53 in 10.0 mi SW 8.1 mph - N/A   Overcast
1:55 AM 33.8 °F 25.3 °F 15.8 °F 48% 29.53 in 10.0 mi WSW 11.5 mph 17.3 mph N/A   Overcast
2:35 AM 35.6 °F 28.6 °F 17.6 °F 48% 29.54 in 10.0 mi West 9.2 mph - N/A   Overcast
2:55 AM 37.4 °F 30.8 °F 17.6 °F 45% 29.55 in 10.0 mi West 9.2 mph - N/A   Overcast
3:15 AM 37.4 °F 29.8 °F 17.6 °F 45% 29.55 in 10.0 mi WNW 11.5 mph - N/A   Overcast
3:35 AM 35.6 °F 28.0 °F 17.6 °F 48% 29.56 in 10.0 mi West 10.4 mph - N/A   Overcast
3:55 AM 37.4 °F 28.9 °F 17.6 °F 45% 29.55 in 10.0 mi West 13.8 mph - N/A   Overcast
4:15 AM 37.4 °F 28.5 °F 17.6 °F 45% 29.57 in 10.0 mi WNW 15.0 mph - N/A   Overcast
4:35 AM 37.4 °F 29.3 °F 17.6 °F 45% 29.56 in 10.0 mi WNW 12.7 mph - N/A   Overcast
4:55 AM 39.2 °F 30.5 °F 15.8 °F 39% 29.55 in 10.0 mi WNW 16.1 mph 20.7 mph N/A   Overcast
5:15 AM 39.2 °F 31.2 °F 17.6 °F 42% 29.55 in 10.0 mi WNW 13.8 mph 18.4 mph N/A   Overcast
5:35 AM 39.2 °F 30.5 °F 17.6 °F 42% 29.57 in 10.0 mi WNW 16.1 mph 21.9 mph N/A   Overcast
5:55 AM 39.2 °F 31.6 °F 17.6 °F 42% 29.58 in 10.0 mi West 12.7 mph - N/A   Overcast
6:15 AM 37.4 °F 30.8 °F 17.6 °F 45% 29.57 in 10.0 mi WNW 9.2 mph - N/A   Overcast
6:35 AM 37.4 °F 30.3 °F 19.4 °F 48% 29.58 in 10.0 mi WNW 10.4 mph - N/A   Overcast
6:55 AM 37.4 °F 30.8 °F 19.4 °F 48% 29.59 in 10.0 mi WNW 9.2 mph - N/A   Overcast
7:15 AM 37.4 °F 28.9 °F 19.4 °F 48% 29.59 in 10.0 mi WNW 13.8 mph - N/A   Overcast
7:35 AM 35.6 °F 26.6 °F 21.2 °F 56% 29.60 in 10.0 mi WNW 13.8 mph - N/A   Overcast
7:55 AM 35.6 °F 27.1 °F 21.2 °F 56% 29.61 in 10.0 mi WNW 12.7 mph 18.4 mph N/A   Overcast
8:15 AM 33.8 °F 25.8 °F 23.0 °F 65% 29.62 in 10.0 mi NW 10.4 mph - N/A   Mostly Cloudy
8:35 AM 33.8 °F 25.3 °F 23.0 °F 65% 29.61 in 10.0 mi NW 11.5 mph 16.1 mph N/A   Mostly Cloudy
9:35 AM 32.0 °F 20.8 °F 26.6 °F 80% 29.64 in 10.0 mi NNW 17.3 mph 20.7 mph N/A   Overcast
9:55 AM 32.0 °F 22.1 °F 26.6 °F 80% 29.65 in 10.0 mi NW 13.8 mph 23.0 mph N/A   Mostly Cloudy
10:15 AM 32.0 °F 22.1 °F 26.6 °F 80% 29.65 in 10.0 mi NNW 13.8 mph - N/A   Mostly Cloudy
10:35 AM 32.0 °F 23.0 °F 26.6 °F 80% 29.67 in 10.0 mi NW 11.5 mph - N/A   Mostly Cloudy
10:55 AM 32.0 °F 23.0 °F 26.6 °F 80% 29.69 in 10.0 mi NW 11.5 mph - N/A   Scattered Clouds
11:35 AM 32.0 °F 22.5 °F 26.6 °F 80% 29.68 in 10.0 mi NNW 12.7 mph 17.3 mph N/A   Mostly Cloudy
11:55 AM 32.0 °F 22.5 °F 26.6 °F 80% 29.68 in 10.0 mi NW 12.7 mph - N/A   Overcast
12:15 PM 33.8 °F 23.9 °F 26.6 °F 75% 29.68 in 10.0 mi NNW 15.0 mph 18.4 mph N/A   Overcast
12:35 PM 32.0 °F 20.8 °F 24.8 °F 75% 29.67 in 10.0 mi NNW 17.3 mph - N/A   Scattered Clouds
12:55 PM 32.0 °F 21.2 °F 24.8 °F 75% 29.67 in 10.0 mi NNW 16.1 mph - N/A   Mostly Cloudy
1:15 PM 32.0 °F 21.6 °F 24.8 °F 75% 29.66 in 10.0 mi NNW 15.0 mph 21.9 mph N/A   Mostly Cloudy
1:35 PM 32.0 °F 22.1 °F 24.8 °F 75% 29.68 in 10.0 mi NW 13.8 mph - N/A   Mostly Cloudy
1:55 PM 32.0 °F 21.6 °F 24.8 °F 75% 29.70 in 10.0 mi NW 15.0 mph - N/A   Mostly Cloudy
2:15 PM 32.0 °F 21.6 °F 23.0 °F 69% 29.71 in 10.0 mi NW 15.0 mph - N/A   Scattered Clouds
2:35 PM 32.0 °F 22.5 °F 23.0 °F 69% 29.70 in 9.0 mi NW 12.7 mph 20.7 mph N/A   Mostly Cloudy
2:55 PM 30.2 °F 18.9 °F 19.4 °F 64% 29.70 in 9.0 mi NW 16.1 mph 23.0 mph N/A   Mostly Cloudy
3:15 PM 28.4 °F 16.2 °F 19.4 °F 69% 29.70 in 10.0 mi NW 17.3 mph 23.0 mph N/A   Clear
3:35 PM 28.4 °F 15.4 °F 19.4 °F 69% 29.72 in 10.0 mi NW 19.6 mph - N/A   Clear
3:55 PM 28.4 °F 15.8 °F 17.6 °F 64% 29.73 in 10.0 mi NW 18.4 mph 25.3 mph N/A   Scattered Clouds
4:15 PM 26.6 °F 14.3 °F 17.6 °F 69% 29.74 in 10.0 mi NW 16.1 mph 20.7 mph N/A   Partly Cloudy
4:35 PM 26.6 °F 13.8 °F 17.6 °F 69% 29.75 in 10.0 mi NW 17.3 mph 24.2 mph N/A   Partly Cloudy
4:55 PM 24.8 °F 14.0 °F 17.6 °F 74% 29.77 in 10.0 mi NW 11.5 mph 19.6 mph N/A   Mostly Cloudy
5:15 PM 24.8 °F 12.9 °F 15.8 °F 69% 29.78 in 10.0 mi NW 13.8 mph 19.6 mph N/A   Scattered Clouds
5:55 PM 24.8 °F 13.4 °F 14.0 °F 64% 29.81 in 10.0 mi WNW 12.7 mph - N/A   Overcast
6:15 PM 23.0 °F 11.1 °F 15.8 °F 74% 29.82 in 10.0 mi WNW 12.7 mph 17.3 mph N/A   Overcast
6:35 PM 23.0 °F 11.7 °F 14.0 °F 68% 29.82 in 10.0 mi WNW 11.5 mph - N/A   Overcast
6:55 PM 23.0 °F 9.2 °F 14.0 °F 68% 29.82 in 10.0 mi NW 17.3 mph 20.7 mph N/A   Overcast
7:15 PM 23.0 °F 11.7 °F 14.0 °F 68% 29.83 in 10.0 mi NW 11.5 mph 21.9 mph N/A   Overcast
7:55 PM 21.2 °F 6.8 °F 14.0 °F 74% 29.85 in 10.0 mi NW 17.3 mph 23.0 mph N/A Snow Light Snow
8:15 PM 19.4 °F 5.5 °F 15.8 °F 86% 29.85 in 10.0 mi NW 15.0 mph 21.9 mph N/A Snow Light Snow
8:55 PM 17.6 °F 3.2 °F 10.4 °F 73% 29.87 in 10.0 mi NW 15.0 mph 20.7 mph N/A   Partly Cloudy
9:15 PM 17.6 °F 1.7 °F 10.4 °F 73% 29.87 in 10.0 mi NW 18.4 mph - N/A   Scattered Clouds
9:35 PM 17.6 °F 1.3 °F 10.4 °F 73% 29.87 in 10.0 mi NW 19.6 mph - N/A   Mostly Cloudy
9:55 PM 15.8 °F 0.9 °F 10.4 °F 79% 29.88 in 10.0 mi NNW 15.0 mph - N/A   Partly Cloudy
10:15 PM 15.8 °F 0.3 °F 10.4 °F 79% 29.88 in 10.0 mi NNW 16.1 mph - N/A   Mostly Cloudy
10:35 PM 14.0 °F 2.0 °F 10.4 °F 86% 29.88 in 10.0 mi NW 9.2 mph - N/A   Scattered Clouds
10:55 PM 14.0 °F -0.2 °F 12.2 °F 93% 29.89 in 10.0 mi NW 12.7 mph - N/A   Mostly Cloudy
11:15 PM 14.0 °F 1.2 °F 10.4 °F 86% 29.91 in 10.0 mi NW 10.4 mph - N/A   Scattered Clouds
11:35 PM 14.0 °F 2.0 °F 12.2 °F 93% 29.89 in 10.0 mi NNW 9.2 mph - N/A   Mostly Cloudy
11:55 PM 15.8 °F 2.1 °F 12.2 °F 86% 29.88 in 10.0 mi North 12.7 mph - N/A Snow Light Snow